Weather History for Lytton, BC

Change the Weather History Date:

Sunday, November 25, 2012

  Actual Average Record
Temperature  
Mean Temperature 34 °F -  
Max Temperature 41 °F 38 °F 48 °F (1999)
Min Temperature 26 °F 28 °F 15 °F (2006)
Degree Days  
Heating Degree Days 32    
Moisture  
Dew Point 29 °F    
Average Humidity 94    
Maximum Humidity 100    
Minimum Humidity 60    
Precipitation  
Precipitation 0.00 in - - ()
Sea Level Pressure  
Sea Level Pressure 30.35 in    
Wind  
Wind Speed 1 mph ()    
Max Wind Speed 5 mph    
Max Gust Speed -    
Visibility 2.4 miles    
Events      
Averages and records for this station are not official NWS values.
T = Trace of Precipitation, MM = Missing Value Source: Averaged Metar Reports

Daily Weather History Graph

Daily Weather History Graph

Search for Another Location

Airport:

Trip Planner

Search our weather history database for the weather conditions in past years. The results will help you decide how hot, cold, wet, or windy it might be!

Date:

Astronomy

Nov. 25, 2012 Rise Set
Actual Time 7:36 AM PST 4:10 PM PST
Civil Twilight 6:59 AM PST 4:47 PM PST
Nautical Twilight 6:18 AM PST 5:27 PM PST
Astronomical Twilight 5:40 AM PST 6:06 PM PST
Moon 2:39 PM PST (11/25) 4:44 AM PST (11/25)
Length of Visible Light 9h 47m
Length of Day
8h 33m
Waxing Gibbous, 93% of the Moon is Illuminated
Nov 25
Waxing Gibbous
Nov 28
Full
Dec 6
Last Quarter
Dec 13
New
Dec 19
First Quarter

Hourly Weather History & Observations

Time (PST) Temp. Windchill Dew Point Humidity Pressure Visibility Wind Dir Wind Speed Gust Speed Precip Events Conditions
12:00 AM 32.0 °F - 30.2 °F 93% 30.25 in 0.1 mi Calm Calm - N/A   Overcast
12:20 AM 32.0 °F - 30.2 °F 93% 30.23 in 0.1 mi Calm Calm - N/A   Clear
12:25 AM 32.0 °F - 30.2 °F 93% 30.23 in 0.1 mi Calm Calm - N/A   Mostly Cloudy
1:00 AM 31 °F - 30 °F 95% 30.26 in 0 mi Calm Calm - -   Overcast
1:00 AM 32.0 °F - 30.2 °F 93% 30.26 in 0.1 mi Calm Calm - N/A   Overcast
2:00 AM 30.2 °F - 30.2 °F 100% 30.27 in 0.1 mi Calm Calm - N/A   Overcast
2:37 AM 30.2 °F - 30.2 °F 100% 30.26 in 0.1 mi Calm Calm - N/A   Clear
2:42 AM 30.2 °F - 30.2 °F 100% 30.26 in 0.1 mi Calm Calm - N/A   Mostly Cloudy
2:43 AM 30.2 °F - 30.2 °F 100% 30.26 in 0.1 mi Calm Calm - N/A   Mostly Cloudy
3:00 AM 30.2 °F 26.7 °F 30.2 °F 100% 30.29 in 0.1 mi SE 3.5 mph - N/A   Mostly Cloudy
3:02 AM 32.0 °F 28.7 °F 30.2 °F 93% 30.26 in 0.1 mi SE 3.5 mph - N/A   Partly Cloudy
3:06 AM 30.2 °F - 30.2 °F 100% 30.26 in 0.1 mi SSE 2.3 mph - N/A   Mostly Cloudy
3:07 AM 32.0 °F - 30.2 °F 93% 30.26 in 0.1 mi South 2.3 mph - N/A   Overcast
3:20 AM 32.0 °F - 30.2 °F 93% 30.26 in 0.1 mi Calm Calm - N/A   Mostly Cloudy
3:37 AM 30.2 °F - 30.2 °F 100% 30.27 in 0.1 mi Calm Calm - N/A   Overcast
4:00 AM 31 °F - 30 °F 93% 30.30 in 0 mi Calm Calm - -   Overcast
4:00 AM 30.2 °F - 30.2 °F 100% 30.30 in 0.1 mi Calm Calm - N/A   Overcast
5:00 AM 30.2 °F - 28.4 °F 93% 30.32 in 0.1 mi Calm Calm - N/A   Overcast
6:00 AM 30.2 °F - 28.4 °F 93% 30.33 in 0.1 mi Calm Calm - N/A   Overcast
7:00 AM 30 °F - 29 °F 93% 30.34 in 0 mi Calm Calm - -   Overcast
7:00 AM 30.2 °F - 28.4 °F 93% 30.34 in 0.1 mi Calm Calm - N/A   Overcast
8:00 AM 28.4 °F - 26.6 °F 93% 30.37 in 0.1 mi Calm Calm - N/A   Overcast
9:00 AM 28.4 °F - 26.6 °F 93% 30.39 in 0.1 mi North 2.3 mph - N/A   Overcast
10:00 AM 29 °F - 28 °F 96% 30.40 in 0 mi South 2.3 mph - -   Overcast
10:00 AM 30.2 °F 26.7 °F 28.4 °F 93% 30.40 in 0.1 mi SSE 3.5 mph - N/A   Overcast
10:58 AM 32.0 °F - 30.2 °F 93% 30.36 in 0.5 mi SSE 2.3 mph - N/A   Partly Cloudy
11:00 AM 32.0 °F - 30.2 °F 93% 30.39 in 1.8 mi Calm Calm - N/A   Clear
11:11 AM 35.6 °F - 32.0 °F 87% 30.36 in 9.0 mi Calm Calm - N/A   Clear
12:00 PM 37.4 °F - 32.0 °F 81% 30.38 in 9.0 mi Calm Calm - N/A   Clear
1:00 PM 39 °F - 30 °F 60% 30.37 in 9 mi Calm Calm - -  
1:00 PM 39.2 °F - 30.2 °F 70% 30.37 in 9.0 mi Calm Calm - N/A   Clear
2:00 PM 41.0 °F - 28.4 °F 61% 30.36 in 9.0 mi Calm Calm - N/A   Clear
3:00 PM 35.6 °F 31.7 °F 30.2 °F 81% 30.37 in 9.0 mi SSE 4.6 mph - N/A   Clear
4:00 PM 34 °F - 31 °F 86% 30.38 in 9 mi Calm Calm - -  
4:00 PM 33.8 °F - 32.0 °F 93% 30.38 in 9.0 mi Calm Calm - N/A   Clear
5:00 PM 32.0 °F - 30.2 °F 93% 30.40 in 9.0 mi Calm Calm - N/A   Clear
6:00 PM 30.2 °F - 30.2 °F 100% 30.40 in 9.0 mi Calm Calm - N/A   Clear
6:18 PM 30.2 °F - 26.6 °F 86% 30.36 in 9.0 mi Calm Calm - N/A   Mostly Cloudy
6:27 PM 30.2 °F - 28.4 °F 93% 30.37 in 9.0 mi SE 2.3 mph - N/A   Scattered Clouds
7:00 PM 29 °F - 27 °F 90% 30.40 in 9 mi Calm Calm - -  
7:00 PM 30.2 °F - 26.6 °F 86% 30.40 in 9.0 mi Calm Calm - N/A   Clear
7:05 PM 30.2 °F - 26.6 °F 86% 30.37 in 9.0 mi Calm Calm - N/A   Mostly Cloudy
7:36 PM 28.4 °F - 28.4 °F 100% 30.37 in 1.4 mi Calm Calm - N/A   Overcast
7:37 PM 28.4 °F - 28.4 °F 100% 30.37 in 0.6 mi Calm Calm - N/A   Overcast
7:38 PM 28.4 °F - 28.4 °F 100% 30.37 in 0.4 mi Calm Calm - N/A   Overcast
7:40 PM 28.4 °F - 28.4 °F 100% 30.37 in 0.1 mi Calm Calm - N/A   Overcast
7:44 PM 28.4 °F - 28.4 °F 100% 30.37 in 0.1 mi Calm Calm - N/A   Clear
7:46 PM 28.4 °F - 28.4 °F 100% 30.37 in 0.1 mi Calm Calm - N/A   Mostly Cloudy
7:47 PM 28.4 °F - 28.4 °F 100% 30.37 in 0.1 mi Calm Calm - N/A   Mostly Cloudy
8:00 PM 28.4 °F - 28.4 °F 100% 30.41 in 0.1 mi Calm Calm - N/A   Overcast
9:00 PM 28.4 °F - 26.6 °F 93% 30.41 in 0.1 mi Calm Calm - N/A   Overcast
10:00 PM 28 °F - 28 °F 97% 30.42 in 0 mi North 2.3 mph - -   Overcast
10:00 PM 28.4 °F 24.6 °F 28.4 °F 100% 30.42 in 0.1 mi North 3.5 mph - N/A   Overcast
10:19 PM 26.6 °F - 26.6 °F 100% 30.38 in 0.1 mi North 2.3 mph - N/A   Clear
10:21 PM 26.6 °F - 26.6 °F 100% 30.38 in 0.6 mi North 2.3 mph - N/A   Clear
10:23 PM 26.6 °F - 26.6 °F 100% 30.38 in 1.0 mi North 2.3 mph - N/A   Partly Cloudy
10:25 PM 26.6 °F - 26.6 °F 100% 30.38 in 0.8 mi NNW 2.3 mph - N/A   Scattered Clouds
10:26 PM 26.6 °F - 26.6 °F 100% 30.38 in 0.6 mi NNW 2.3 mph - N/A   Scattered Clouds
10:28 PM 26.6 °F - 26.6 °F 100% 30.38 in 0.4 mi North 2.3 mph - N/A   Scattered Clouds
10:35 PM 26.6 °F - 26.6 °F 100% 30.38 in 0.1 mi Calm Calm - N/A   Scattered Clouds
10:44 PM 26.6 °F - 26.6 °F 100% 30.37 in 0.1 mi Calm Calm - N/A   Mostly Cloudy
11:00 PM 26.6 °F - 26.6 °F 100% 30.41 in 0.1 mi Calm Calm - N/A   Overcast